Angoon, AK

5:08 PM AKST on December 09, 2019 (GMT -0900)
Angoon

Weather History for PAGN - May, 2019

Change the Weather History Date:

Friday, May 17, 2019

  Actual Average (WUND) Record (WUND)
Temperature  
Mean Temperature 49 °F -  
Max Temperature 54 °F - - (-1)
Min Temperature 44 °F - - (-1)
Degree Days  
Heating Degree Days 16    
Moisture  
Dew Point 46 °F    
Average Humidity 95    
Maximum Humidity 100    
Minimum Humidity 71    
Precipitation  
Precipitation 0.21 in - - ()
Sea Level Pressure  
Sea Level Pressure 29.64 in    
Wind  
Wind Speed 0 mph (SW)    
Max Wind Speed 7 mph    
Max Gust Speed -    
Visibility 6 miles    
Events Rain    
Averages and records for this station are not official NWS values.
T = Trace of Precipitation, MM = Missing Value Source: NWS Daily Summary

Daily Weather History Graph

Daily Weather History Graph

Search for Another Location

Airport or City:

Astronomy

May. 17, 2019 Rise Set
Actual Time 4:33 AM AKDT 9:17 PM AKDT
Civil Twilight 3:38 AM AKDT 10:13 PM AKDT
Nautical Twilight 1:59 AM AKDT 11:55 PM AKDT
Astronomical Twilight Sun does not rise Sun does not rise
Moon 7:47 PM AKDT (5/17) 4:45 AM AKDT (5/17)
Length of Visible Light 18h 35m
Length of Day
16h 44m
Waxing Gibbous, 99% of the Moon is Illuminated
May 17
Waxing Gibbous
May 18
Full
May 26
Last Quarter
Jun 3
New
Jun 9
First Quarter

Hourly Weather History & Observations

Time (AKDT) Temp. Dew Point Humidity Pressure Visibility Wind Dir Wind Speed Gust Speed Precip Events Conditions
12:15 AM 46.4 °F 46.4 °F 100% 29.59 in 0.8 mi Calm Calm - 0.01 in Rain Light Rain
12:20 AM 46.4 °F 46.4 °F 100% 29.60 in 1.2 mi Calm Calm - 0.01 in Rain Light Rain
12:40 AM 46.4 °F 46.4 °F 100% 29.59 in 2.0 mi Calm Calm - 0.01 in Rain Light Rain
12:45 AM 46.4 °F 46.4 °F 100% 29.59 in 1.8 mi Calm Calm - 0.01 in Rain Light Rain
12:53 AM 46.4 °F 46.4 °F 100% 29.59 in 1.0 mi Calm Calm - 0.01 in Rain Light Rain
12:56 AM 46.0 °F 46.0 °F 100% 29.56 in 1.0 mi Calm Calm - 0.01 in Rain Light Rain
1:12 AM 46.4 °F 46.4 °F 100% 29.59 in 2.0 mi Calm Calm - 0.00 in Rain Light Rain
1:20 AM 46.4 °F 46.4 °F 100% 29.59 in 5.0 mi Calm Calm - 0.00 in Rain Light Rain
1:26 AM 46.4 °F 46.4 °F 100% 29.59 in 2.5 mi Calm Calm - 0.01 in Rain Light Rain
1:31 AM 44.6 °F 44.6 °F 100% 29.59 in 1.0 mi Calm Calm - 0.01 in Rain Light Rain
1:41 AM 46.4 °F 46.4 °F 100% 29.59 in 2.0 mi Calm Calm - 0.01 in Rain Light Rain
1:49 AM 46.4 °F 46.4 °F 100% 29.59 in 6.0 mi Calm Calm - 0.01 in Rain Light Rain
1:56 AM 46.0 °F 45.0 °F 96% 29.56 in 2.5 mi Calm Calm - 0.01 in Rain Light Rain
2:08 AM 44.6 °F 44.6 °F 100% 29.59 in 4.0 mi Calm Calm - 0.01 in Rain Light Rain
2:15 AM 44.6 °F 44.6 °F 100% 29.59 in 1.8 mi Calm Calm - 0.01 in Rain Light Rain
2:43 AM 46.4 °F 46.4 °F 100% 29.60 in 2.0 mi Calm Calm - 0.03 in Rain Light Rain
2:56 AM 46.0 °F 46.0 °F 100% 29.57 in 3.0 mi Calm Calm - 0.04 in Rain Light Rain
3:03 AM 46.4 °F 46.4 °F 100% 29.60 in 6.0 mi Calm Calm - 0.01 in Rain Light Rain
3:29 AM 46.4 °F 46.4 °F 100% 29.60 in 2.5 mi Calm Calm - 0.02 in Rain Light Rain
3:37 AM 46.4 °F 46.4 °F 100% 29.60 in 3.0 mi Calm Calm - 0.03 in Rain Light Rain
3:44 AM 46.4 °F 46.4 °F 100% 29.60 in 6.0 mi Calm Calm - 0.03 in Rain Light Rain
3:54 AM 46.4 °F 44.6 °F 93% 29.60 in 1.8 mi Calm Calm - 0.04 in Rain Light Rain
3:56 AM 46.0 °F 45.0 °F 96% 29.57 in 1.5 mi Calm Calm - 0.04 in Rain Light Rain
4:36 AM 46.4 °F 46.4 °F 100% 29.61 in 3.0 mi Calm Calm - 0.03 in Rain Light Rain
4:56 AM 46.9 °F 46.9 °F 100% 29.58 in 7.0 mi Calm Calm - 0.06 in Rain Light Rain
5:08 AM 46.4 °F 46.4 °F 100% 29.61 in 10.0 mi Calm Calm - 0.00 in Rain Light Rain
5:18 AM 46.4 °F 46.4 °F 100% 29.61 in 10.0 mi Calm Calm - 0.00 in Rain Light Rain
5:56 AM 46.9 °F 46.0 °F 97% 29.59 in 4.0 mi Calm Calm - 0.01 in Rain Light Rain
6:12 AM 46.4 °F 46.4 °F 100% 29.63 in 2.0 mi Calm Calm - 0.01 in Rain Light Rain
6:44 AM 46.4 °F 46.4 °F 100% 29.63 in 4.0 mi Calm Calm - 0.02 in Rain Light Rain
6:56 AM 46.9 °F 46.9 °F 100% 29.60 in 4.0 mi Calm Calm - 0.02 in Rain Light Rain
7:47 AM 46.4 °F 46.4 °F 100% 29.65 in 10.0 mi Calm Calm - 0.00 in Rain Light Rain
7:56 AM 46.9 °F 46.9 °F 100% 29.62 in 10.0 mi Calm Calm - 0.00 in   Overcast
8:56 AM 48.0 °F 46.9 °F 96% 29.63 in 8.0 mi Variable 3.5 mph - N/A   Overcast
9:09 AM 48.2 °F 46.4 °F 93% 29.67 in 3.0 mi Calm Calm - 0.00 in Rain Light Rain
9:17 AM 48.2 °F 46.4 °F 93% 29.67 in 2.5 mi Variable 3.5 mph - 0.00 in Rain Light Rain
9:24 AM 48.2 °F 46.4 °F 93% 29.67 in 3.0 mi Calm Calm - 0.00 in Rain Light Rain
9:41 AM 48.2 °F 46.4 °F 93% 29.67 in 2.5 mi Variable 3.5 mph - 0.01 in Rain Light Rain
9:43 AM 48.2 °F 46.4 °F 93% 29.67 in 3.0 mi Variable 3.5 mph - 0.01 in Rain Light Rain
9:56 AM 48.0 °F 46.9 °F 96% 29.65 in 10.0 mi Variable 3.5 mph - 0.02 in Rain Light Rain
10:26 AM 48.2 °F 48.2 °F 100% 29.68 in 10.0 mi Calm Calm - N/A   Overcast
10:47 AM 48.2 °F 46.4 °F 93% 29.69 in 10.0 mi Calm Calm - N/A   Overcast
10:56 AM 48.0 °F 46.9 °F 96% 29.67 in 10.0 mi Calm Calm - N/A   Overcast
11:07 AM 48.2 °F 46.4 °F 93% 29.70 in 10.0 mi Calm Calm - N/A   Overcast
11:56 AM 48.9 °F 46.9 °F 93% 29.68 in 10.0 mi Variable 6.9 mph - N/A   Overcast
12:11 PM 48.2 °F 46.4 °F 93% 29.71 in 10.0 mi Variable 4.6 mph - N/A   Overcast
12:56 PM 48.9 °F 46.0 °F 90% 29.69 in 10.0 mi Calm Calm - 0.00 in   Overcast
1:56 PM 51.1 °F 46.0 °F 83% 29.68 in 10.0 mi Variable 5.8 mph - N/A   Partly Cloudy
2:56 PM 53.1 °F 46.0 °F 77% 29.69 in 10.0 mi Calm Calm - N/A   Scattered Clouds
3:56 PM 54.0 °F 45.0 °F 72% 29.69 in 10.0 mi Variable 4.6 mph - N/A   Scattered Clouds
4:56 PM 53.1 °F 44.1 °F 71% 29.69 in 10.0 mi SW 5.8 mph - N/A   Scattered Clouds
5:56 PM 51.1 °F 44.1 °F 77% 29.69 in 10.0 mi Calm Calm - N/A   Clear
6:56 PM 51.1 °F 44.1 °F 77% 29.70 in 10.0 mi Calm Calm - N/A   Overcast
7:56 PM 48.9 °F 46.9 °F 93% 29.70 in 10.0 mi Calm Calm - N/A   Mostly Cloudy
8:56 PM 48.9 °F 46.9 °F 93% 29.71 in 10.0 mi Calm Calm - N/A   Overcast
9:56 PM 48.9 °F 46.9 °F 93% 29.73 in 10.0 mi Calm Calm - 0.00 in   Overcast
10:56 PM 48.0 °F 46.9 °F 96% 29.74 in 10.0 mi Calm Calm - N/A   Overcast
11:56 PM 46.9 °F 46.0 °F 97% 29.76 in 10.0 mi Calm Calm - N/A   Mostly Cloudy